Time,TemperatureF,DewpointF,PressureIn,WindDirection,WindDirectionDegrees,WindSpeedMPH,WindSpeedGustMPH,Humidity,HourlyPrecipIn,Conditions,Clouds,dailyrainin,SoftwareType,DateUTC
2013-09-26 00:00:00,60.6,59.5,29.92,NW,315,0.0,0.0,96,0.00,,CLR,0.00,VWS V14.01,2013-09-26 04:00:00,
2013-09-26 00:10:00,60.4,59.0,29.92,NW,319,0.0,-999.0,96,-99.99,,,0.00,weatherlink.com 1.10,2013-09-26 04:10:00,
2013-09-26 00:25:00,60.4,59.0,29.92,NW,319,1.0,-999.0,96,-99.99,,,0.00,weatherlink.com 1.10,2013-09-26 04:25:00,
2013-09-26 00:30:00,60.4,59.3,29.92,NW,315,0.0,1.0,96,0.00,,CLR,0.00,VWS V14.01,2013-09-26 04:30:00,
2013-09-26 00:40:00,60.3,59.0,29.92,WNW,297,0.0,-999.0,96,-99.99,,,0.00,weatherlink.com 1.10,2013-09-26 04:40:00,
2013-09-26 00:55:00,60.2,59.0,29.92,WNW,297,0.0,-999.0,96,-99.99,,,0.00,weatherlink.com 1.10,2013-09-26 04:55:00,
2013-09-26 01:00:00,60.2,59.1,29.92,WNW,292,0.0,3.0,96,0.00,,CLR,0.00,VWS V14.01,2013-09-26 05:00:00,
2013-09-26 01:10:00,60.1,59.0,29.92,WNW,297,0.0,-999.0,96,-99.99,,,0.00,weatherlink.com 1.10,2013-09-26 05:10:00,
2013-09-26 01:25:00,60.0,59.0,29.91,WNW,297,0.0,-999.0,96,-99.99,,,0.00,weatherlink.com 1.10,2013-09-26 05:25:00,
2013-09-26 01:30:00,60.0,58.9,29.92,WNW,292,0.0,1.0,96,0.00,,CLR,0.00,VWS V14.01,2013-09-26 05:30:00,
2013-09-26 01:40:00,60.0,59.0,29.91,WNW,297,0.0,-999.0,96,-99.99,,,0.00,weatherlink.com 1.10,2013-09-26 05:40:00,
2013-09-26 01:55:00,59.9,59.0,29.92,WNW,297,0.0,-999.0,96,-99.99,,,0.00,weatherlink.com 1.10,2013-09-26 05:55:00,
2013-09-26 02:00:00,59.9,58.8,29.92,WNW,292,0.0,0.0,96,0.00,,CLR,0.00,VWS V14.01,2013-09-26 06:00:00,
2013-09-26 02:10:00,60.0,59.0,29.92,WNW,297,0.0,-999.0,97,-99.99,,,0.00,weatherlink.com 1.10,2013-09-26 06:10:00,
2013-09-26 02:25:00,59.9,59.0,29.92,WNW,297,0.0,-999.0,96,-99.99,,,0.00,weatherlink.com 1.10,2013-09-26 06:25:00,
2013-09-26 02:30:00,59.9,58.8,29.92,WNW,292,0.0,0.0,96,0.00,,CLR,0.00,VWS V14.01,2013-09-26 06:30:00,
2013-09-26 02:40:00,59.8,59.0,29.92,WNW,297,0.0,-999.0,96,-99.99,,,0.00,weatherlink.com 1.10,2013-09-26 06:40:00,
2013-09-26 02:55:00,59.6,59.0,29.92,WNW,297,0.0,-999.0,96,-99.99,,,0.00,weatherlink.com 1.10,2013-09-26 06:55:00,
2013-09-26 03:00:00,59.6,58.5,29.92,WNW,292,0.0,0.0,96,0.00,,CLR,0.00,VWS V14.01,2013-09-26 07:00:00,
2013-09-26 03:10:00,59.6,59.0,29.92,WNW,297,0.0,-999.0,96,-99.99,,,0.00,weatherlink.com 1.10,2013-09-26 07:10:00,
2013-09-26 03:25:00,59.6,59.0,29.92,WNW,297,0.0,-999.0,96,-99.99,,,0.00,weatherlink.com 1.10,2013-09-26 07:25:00,
2013-09-26 03:30:00,59.6,58.5,29.92,WNW,292,0.0,0.0,96,0.00,,CLR,0.00,VWS V14.01,2013-09-26 07:30:00,
2013-09-26 03:40:00,59.4,58.0,29.92,WNW,297,0.0,-999.0,96,-99.99,,,0.00,weatherlink.com 1.10,2013-09-26 07:40:00,
2013-09-26 03:55:00,59.3,59.0,29.92,NW,304,0.0,-999.0,97,-99.99,,,0.00,weatherlink.com 1.10,2013-09-26 07:55:00,
2013-09-26 04:00:00,59.3,58.5,29.92,NW,315,0.0,2.0,97,0.00,,CLR,0.00,VWS V14.01,2013-09-26 08:00:00,
2013-09-26 04:10:00,59.3,59.0,29.92,NW,315,0.0,-999.0,97,-99.99,,,0.00,weatherlink.com 1.10,2013-09-26 08:10:00,
2013-09-26 04:25:00,59.3,59.0,29.91,West,277,0.0,-999.0,97,-99.99,,,0.00,weatherlink.com 1.10,2013-09-26 08:25:00,
2013-09-26 04:30:00,59.3,58.5,29.92,NW,315,0.0,2.0,97,0.00,,CLR,0.00,VWS V14.01,2013-09-26 08:30:00,
2013-09-26 04:40:00,59.4,59.0,29.92,NW,306,0.0,-999.0,97,-99.99,,,0.00,weatherlink.com 1.10,2013-09-26 08:40:00,
2013-09-26 04:55:00,59.5,59.0,29.92,WNW,297,2.0,-999.0,97,-99.99,,,0.00,weatherlink.com 1.10,2013-09-26 08:55:00,
2013-09-26 05:00:00,59.5,58.7,29.92,WNW,292,1.0,3.0,97,0.00,,CLR,0.00,VWS V14.01,2013-09-26 09:00:00,
2013-09-26 05:10:00,59.5,59.0,29.92,NW,306,0.0,-999.0,97,-99.99,,,0.00,weatherlink.com 1.10,2013-09-26 09:10:00,
2013-09-26 05:25:00,59.5,59.0,29.92,NW,306,0.0,-999.0,97,-99.99,,,0.00,weatherlink.com 1.10,2013-09-26 09:25:00,
2013-09-26 05:30:00,59.5,58.7,29.92,NW,315,0.0,3.0,97,0.00,,CLR,0.00,VWS V14.01,2013-09-26 09:30:00,
2013-09-26 05:40:00,59.5,59.0,29.92,NW,306,0.0,-999.0,97,-99.99,,,0.00,weatherlink.com 1.10,2013-09-26 09:40:00,
2013-09-26 05:55:00,59.5,59.0,29.92,NW,306,0.0,-999.0,97,-99.99,,,0.00,weatherlink.com 1.10,2013-09-26 09:55:00,
2013-09-26 06:00:00,59.5,58.7,29.92,NW,315,0.0,2.0,97,0.00,,CLR,0.00,VWS V14.01,2013-09-26 10:00:00,
2013-09-26 06:10:00,59.5,59.0,29.92,NW,306,0.0,-999.0,97,-99.99,,,0.00,weatherlink.com 1.10,2013-09-26 10:10:00,
2013-09-26 06:25:00,59.3,59.0,29.93,NW,309,0.0,-999.0,97,-99.99,,,0.00,weatherlink.com 1.10,2013-09-26 10:25:00,
2013-09-26 06:30:00,59.3,58.5,29.92,NW,315,0.0,1.0,97,0.00,,CLR,0.00,VWS V14.01,2013-09-26 10:30:00,
2013-09-26 06:40:00,59.3,59.0,29.93,NW,309,0.0,-999.0,97,-99.99,,,0.00,weatherlink.com 1.10,2013-09-26 10:40:00,
2013-09-26 06:55:00,59.3,59.0,29.93,NW,309,0.0,-999.0,97,-99.99,,,0.00,weatherlink.com 1.10,2013-09-26 10:55:00,
2013-09-26 07:00:00,59.3,58.5,29.93,NW,315,0.0,1.0,97,0.00,,CLR,0.00,VWS V14.01,2013-09-26 11:00:00,
2013-09-26 07:10:00,59.4,59.0,29.93,NW,309,0.0,-999.0,97,-99.99,,,0.00,weatherlink.com 1.10,2013-09-26 11:10:00,
2013-09-26 07:25:00,59.3,59.0,29.94,NW,309,0.0,-999.0,97,-99.99,,,0.00,weatherlink.com 1.10,2013-09-26 11:25:00,
2013-09-26 07:30:00,59.3,58.5,29.94,NW,315,0.0,0.0,97,0.00,,CLR,0.00,VWS V14.01,2013-09-26 11:30:00,
2013-09-26 07:40:00,59.2,58.0,29.94,NW,309,0.0,-999.0,97,-99.99,,,0.00,weatherlink.com 1.10,2013-09-26 11:40:00,
2013-09-26 07:55:00,59.1,58.0,29.94,NW,309,0.0,-999.0,97,-99.99,,,0.00,weatherlink.com 1.10,2013-09-26 11:55:00,
2013-09-26 08:00:00,59.1,58.2,29.94,NW,315,0.0,0.0,97,0.00,,CLR,0.00,VWS V14.01,2013-09-26 12:00:00,
2013-09-26 08:10:00,59.3,59.0,29.95,NW,309,0.0,-999.0,97,-99.99,,,0.00,weatherlink.com 1.10,2013-09-26 12:10:00,
2013-09-26 08:25:00,59.5,59.0,29.95,NW,309,0.0,-999.0,97,-99.99,,,0.00,weatherlink.com 1.10,2013-09-26 12:25:00,
2013-09-26 08:30:00,59.6,58.8,29.95,NW,315,0.0,1.0,97,0.00,,CLR,0.00,VWS V14.01,2013-09-26 12:30:00,
2013-09-26 08:40:00,59.8,59.0,29.96,NW,309,0.0,-999.0,97,-99.99,,,0.00,weatherlink.com 1.10,2013-09-26 12:40:00,
2013-09-26 08:55:00,60.2,59.0,29.97,NW,308,1.0,-999.0,97,-99.99,,,0.00,weatherlink.com 1.10,2013-09-26 12:55:00,
2013-09-26 09:00:00,60.3,59.5,29.97,NW,315,0.0,2.0,97,0.00,,CLR,0.00,VWS V14.01,2013-09-26 13:00:00,
2013-09-26 09:10:00,60.5,60.0,29.98,North,357,0.0,-999.0,97,-99.99,,,0.00,weatherlink.com 1.10,2013-09-26 13:10:00,
2013-09-26 09:25:00,61.4,61.0,29.99,ENE,65,0.0,-999.0,97,-99.99,,,0.00,weatherlink.com 1.10,2013-09-26 13:25:00,
2013-09-26 09:30:00,61.8,60.9,29.99,ENE,68,0.0,2.0,97,0.00,,CLR,0.00,VWS V14.01,2013-09-26 13:30:00,
2013-09-26 09:40:00,62.4,62.0,29.99,East,92,2.0,-999.0,97,-99.99,,,0.00,weatherlink.com 1.10,2013-09-26 13:40:00,
2013-09-26 09:55:00,62.9,62.0,29.99,ENE,66,1.0,-999.0,96,-99.99,,,0.00,weatherlink.com 1.10,2013-09-26 13:55:00,
2013-09-26 10:00:00,63.0,61.5,29.99,East,90,0.0,4.0,95,0.00,,CLR,0.00,VWS V14.01,2013-09-26 14:00:00,
2013-09-26 10:10:00,63.4,62.0,29.99,ENE,65,2.0,-999.0,94,-99.99,,,0.00,weatherlink.com 1.10,2013-09-26 14:10:00,
2013-09-26 10:25:00,64.1,60.0,30.00,ENE,67,0.0,-999.0,87,-99.99,,,0.00,weatherlink.com 1.10,2013-09-26 14:25:00,
2013-09-26 10:30:00,64.3,60.0,30.00,ENE,68,0.0,4.0,86,0.00,,CLR,0.00,VWS V14.01,2013-09-26 14:30:00,
2013-09-26 10:40:00,65.0,60.0,30.00,ENE,72,1.0,-999.0,83,-99.99,,,0.00,weatherlink.com 1.10,2013-09-26 14:40:00,
2013-09-26 10:56:00,66.2,61.0,30.00,ENE,62,3.0,-999.0,82,-99.99,,,0.00,weatherlink.com 1.10,2013-09-26 14:56:00,
2013-09-26 11:00:00,66.4,60.0,30.00,East,90,1.0,5.0,80,0.00,,CLR,0.00,VWS V14.01,2013-09-26 15:00:00,
2013-09-26 11:11:00,66.8,59.0,30.01,ENE,69,0.0,-999.0,75,-99.99,,,0.00,weatherlink.com 1.10,2013-09-26 15:11:00,
2013-09-26 11:26:00,67.5,59.0,30.00,East,89,0.0,-999.0,75,-99.99,,,0.00,weatherlink.com 1.10,2013-09-26 15:26:00,
2013-09-26 11:30:00,67.7,59.9,30.00,East,90,1.0,6.0,76,0.00,,CLR,0.00,VWS V14.01,2013-09-26 15:30:00,
2013-09-26 11:41:00,68.2,58.0,30.00,ENE,57,2.0,-999.0,70,-99.99,,,0.00,weatherlink.com 1.10,2013-09-26 15:41:00,
2013-09-26 11:56:00,68.6,59.0,30.00,East,95,1.0,-999.0,71,-99.99,,,0.00,weatherlink.com 1.10,2013-09-26 15:56:00,
2013-09-26 12:00:00,68.7,57.3,30.00,East,90,1.0,6.0,67,0.00,,CLR,0.00,VWS V14.01,2013-09-26 16:00:00,
2013-09-26 12:11:00,69.0,57.0,30.00,ESE,115,1.0,-999.0,66,-99.99,,,0.00,weatherlink.com 1.10,2013-09-26 16:11:00,
2013-09-26 12:26:00,69.4,56.0,30.00,ESE,102,1.0,-999.0,62,-99.99,,,0.00,weatherlink.com 1.10,2013-09-26 16:26:00,
2013-09-26 12:30:00,69.5,55.0,30.00,East,90,2.0,9.0,60,0.00,,CLR,0.00,VWS V14.01,2013-09-26 16:30:00,
2013-09-26 12:41:00,70.2,58.0,30.00,East,83,1.0,-999.0,65,-99.99,,,0.00,weatherlink.com 1.10,2013-09-26 16:41:00,
2013-09-26 12:56:00,71.0,56.0,30.00,East,84,2.0,-999.0,60,-99.99,,,0.00,weatherlink.com 1.10,2013-09-26 16:56:00,
2013-09-26 13:00:00,71.1,56.1,29.99,East,90,2.0,8.0,59,0.00,,CLR,0.00,VWS V14.01,2013-09-26 17:00:00,
2013-09-26 13:11:00,70.9,58.0,29.99,ENE,73,1.0,-999.0,65,-99.99,,,0.01,weatherlink.com 1.10,2013-09-26 17:11:00,
2013-09-26 13:26:00,70.8,57.0,29.99,East,97,2.0,-999.0,61,-99.99,,,0.01,weatherlink.com 1.10,2013-09-26 17:26:00,
2013-09-26 13:30:00,70.8,56.7,29.99,East,90,1.0,8.0,61,0.01,,CLR,0.01,VWS V14.01,2013-09-26 17:30:00,
2013-09-26 13:41:00,70.9,55.0,29.99,ESE,122,5.0,-999.0,58,-99.99,,,0.01,weatherlink.com 1.10,2013-09-26 17:41:00,
2013-09-26 13:56:00,71.4,57.0,29.99,North,11,1.0,-999.0,61,-99.99,,,0.01,weatherlink.com 1.10,2013-09-26 17:56:00,
2013-09-26 14:00:00,71.4,56.8,29.99,East,90,2.0,7.0,60,0.01,,CLR,0.01,VWS V14.01,2013-09-26 18:00:00,
2013-09-26 14:11:00,72.0,55.0,29.98,NE,56,1.0,-999.0,55,-99.99,,,0.01,weatherlink.com 1.10,2013-09-26 18:11:00,
2013-09-26 14:26:00,72.7,56.0,29.98,NE,34,0.0,-999.0,56,-99.99,,,0.01,weatherlink.com 1.10,2013-09-26 18:26:00,
2013-09-26 14:30:00,72.6,53.5,29.98,East,90,1.0,5.0,51,0.01,,CLR,0.01,VWS V14.01,2013-09-26 18:30:00,
2013-09-26 14:41:00,72.6,53.0,29.98,SSW,192,0.0,-999.0,50,-99.99,,,0.01,weatherlink.com 1.10,2013-09-26 18:41:00,
2013-09-26 14:56:00,72.9,56.0,29.97,SE,133,1.0,-999.0,56,-99.99,,,0.01,weatherlink.com 1.10,2013-09-26 18:56:00,
2013-09-26 15:00:00,72.9,55.3,29.97,South,180,1.0,7.0,54,0.00,,CLR,0.01,VWS V14.01,2013-09-26 19:00:00,
2013-09-26 15:11:00,72.2,53.0,29.97,SSW,210,3.0,-999.0,51,-99.99,,,0.01,weatherlink.com 1.10,2013-09-26 19:11:00,
2013-09-26 15:26:00,73.1,54.0,29.97,SSE,164,0.0,-999.0,52,-99.99,,,0.01,weatherlink.com 1.10,2013-09-26 19:26:00,
2013-09-26 15:30:00,73.0,54.4,29.97,South,180,1.0,7.0,52,0.00,,CLR,0.01,VWS V14.01,2013-09-26 19:30:00,
2013-09-26 15:41:00,73.1,55.0,29.97,SE,135,1.0,-999.0,54,-99.99,,,0.01,weatherlink.com 1.10,2013-09-26 19:41:00,
2013-09-26 15:56:00,73.8,55.0,29.97,East,98,0.0,-999.0,52,-99.99,,,0.01,weatherlink.com 1.10,2013-09-26 19:56:00,
2013-09-26 16:00:00,73.8,55.1,29.97,East,90,1.0,5.0,52,0.00,,CLR,0.01,VWS V14.01,2013-09-26 20:00:00,
2013-09-26 16:11:00,73.6,56.0,29.97,South,173,1.0,-999.0,54,-99.99,,,0.01,weatherlink.com 1.10,2013-09-26 20:11:00,
2013-09-26 16:26:00,73.4,56.0,29.97,ESE,106,0.0,-999.0,55,-99.99,,,0.01,weatherlink.com 1.10,2013-09-26 20:26:00,
2013-09-26 16:30:00,73.3,55.7,29.97,SE,135,0.0,4.0,54,0.00,,CLR,0.01,VWS V14.01,2013-09-26 20:30:00,
2013-09-26 16:41:00,73.2,56.0,29.96,East,87,1.0,-999.0,56,-99.99,,,0.01,weatherlink.com 1.10,2013-09-26 20:41:00,
2013-09-26 16:56:00,73.0,56.0,29.96,SE,127,0.0,-999.0,55,-99.99,,,0.01,weatherlink.com 1.10,2013-09-26 20:56:00,
2013-09-26 17:00:00,73.1,56.0,29.97,SE,135,0.0,4.0,55,0.00,,CLR,0.01,VWS V14.01,2013-09-26 21:00:00,
2013-09-26 17:11:00,72.9,57.0,29.97,SE,146,0.0,-999.0,57,-99.99,,,0.01,weatherlink.com 1.10,2013-09-26 21:11:00,
2013-09-26 17:26:00,72.8,56.0,29.98,South,175,1.0,-999.0,55,-99.99,,,0.01,weatherlink.com 1.10,2013-09-26 21:26:00,
2013-09-26 17:30:00,72.7,58.0,29.98,East,90,0.0,4.0,60,0.00,,CLR,0.01,VWS V14.01,2013-09-26 21:30:00,
2013-09-26 17:41:00,72.4,57.0,29.98,ESE,123,0.0,-999.0,58,-99.99,,,0.01,weatherlink.com 1.10,2013-09-26 21:41:00,
2013-09-26 17:56:00,71.7,56.0,29.98,SSE,168,0.0,-999.0,58,-99.99,,,0.01,weatherlink.com 1.10,2013-09-26 21:56:00,
2013-09-26 18:00:00,71.6,56.1,29.98,SE,135,0.0,4.0,58,0.00,,CLR,0.01,VWS V14.01,2013-09-26 22:00:00,
2013-09-26 18:11:00,71.2,56.0,29.98,East,91,0.0,-999.0,59,-99.99,,,0.01,weatherlink.com 1.10,2013-09-26 22:11:00,
2013-09-26 18:26:00,70.5,56.0,29.98,ESE,123,0.0,-999.0,61,-99.99,,,0.01,weatherlink.com 1.10,2013-09-26 22:26:00,
2013-09-26 18:30:00,70.3,56.2,29.99,SE,135,0.0,2.0,61,0.00,,CLR,0.01,VWS V14.01,2013-09-26 22:30:00,
2013-09-26 18:41:00,69.6,58.0,29.99,SSE,152,0.0,-999.0,66,-99.99,,,0.01,weatherlink.com 1.10,2013-09-26 22:41:00,
2013-09-26 18:56:00,68.6,59.0,29.99,SSE,152,0.0,-999.0,71,-99.99,,,0.01,weatherlink.com 1.10,2013-09-26 22:56:00,
2013-09-26 19:00:00,68.3,58.5,29.99,ESE,112,0.0,1.0,71,0.00,,CLR,0.01,VWS V14.01,2013-09-26 23:00:00,
2013-09-26 19:11:00,67.1,59.0,29.99,SSE,152,0.0,-999.0,76,-99.99,,,0.01,weatherlink.com 1.10,2013-09-26 23:11:00,
2013-09-26 19:26:00,65.0,59.0,30.00,WNW,296,0.0,-999.0,80,-99.99,,,0.01,weatherlink.com 1.10,2013-09-26 23:26:00,
2013-09-26 19:30:00,64.6,58.7,30.00,WNW,292,0.0,2.0,81,0.00,,CLR,0.01,VWS V14.01,2013-09-26 23:30:00,
2013-09-26 19:41:00,63.2,58.0,30.00,WNW,296,0.0,-999.0,83,-99.99,,,0.01,weatherlink.com 1.10,2013-09-26 23:41:00,
2013-09-26 19:56:00,61.9,58.0,30.00,WNW,292,2.0,-999.0,86,-99.99,,,0.01,weatherlink.com 1.10,2013-09-26 23:56:00,
2013-09-26 20:00:00,61.6,57.7,30.00,WNW,292,0.0,3.0,87,0.00,,CLR,0.01,VWS V14.01,2013-09-27 00:00:00,
2013-09-26 20:11:00,60.9,58.0,30.01,WNW,299,1.0,-999.0,89,-99.99,,,0.01,weatherlink.com 1.10,2013-09-27 00:11:00,
2013-09-26 20:26:00,60.3,57.0,30.02,WNW,289,1.0,-999.0,90,-99.99,,,0.01,weatherlink.com 1.10,2013-09-27 00:26:00,
2013-09-26 20:30:00,60.2,57.6,30.02,WNW,292,1.0,3.0,91,0.00,,CLR,0.01,VWS V14.01,2013-09-27 00:30:00,
2013-09-26 20:41:00,59.8,57.0,30.02,WNW,291,0.0,-999.0,91,-99.99,,,0.01,weatherlink.com 1.10,2013-09-27 00:41:00,
2013-09-26 20:56:00,59.4,57.0,30.03,WNW,287,2.0,-999.0,92,-99.99,,,0.01,weatherlink.com 1.10,2013-09-27 00:56:00,
2013-09-26 21:00:00,59.3,57.0,30.03,WNW,292,1.0,3.0,92,0.00,,CLR,0.01,VWS V14.01,2013-09-27 01:00:00,
2013-09-26 21:11:00,59.0,57.0,30.03,WNW,283,0.0,-999.0,93,-99.99,,,0.01,weatherlink.com 1.10,2013-09-27 01:11:00,
2013-09-26 21:27:00,58.6,57.0,30.04,WNW,301,0.0,-999.0,93,-99.99,,,0.01,weatherlink.com 1.10,2013-09-27 01:27:00,
2013-09-26 21:30:00,58.6,56.6,30.04,WNW,292,0.0,2.0,93,0.00,,CLR,0.01,VWS V14.01,2013-09-27 01:30:00,
2013-09-26 21:42:00,58.2,56.0,30.04,WNW,301,0.0,-999.0,93,-99.99,,,0.01,weatherlink.com 1.10,2013-09-27 01:42:00,
2013-09-26 21:57:00,57.9,56.0,30.05,NW,310,0.0,-999.0,93,-99.99,,,0.01,weatherlink.com 1.10,2013-09-27 01:57:00,
2013-09-26 22:00:00,57.7,55.7,30.05,NW,315,0.0,1.0,93,0.00,,CLR,0.01,VWS V14.01,2013-09-27 02:00:00,
2013-09-26 22:12:00,57.3,56.0,30.05,NW,310,0.0,-999.0,94,-99.99,,,0.01,weatherlink.com 1.10,2013-09-27 02:12:00,
2013-09-26 22:27:00,56.8,55.0,30.06,WNW,300,1.0,-999.0,94,-99.99,,,0.01,weatherlink.com 1.10,2013-09-27 02:27:00,
2013-09-26 22:30:00,56.7,55.0,30.06,WNW,292,0.0,2.0,94,0.00,,CLR,0.01,VWS V14.01,2013-09-27 02:30:00,
2013-09-26 22:42:00,56.4,55.0,30.06,WNW,287,0.0,-999.0,94,-99.99,,,0.01,weatherlink.com 1.10,2013-09-27 02:42:00,
2013-09-26 22:57:00,56.0,54.0,30.06,WNW,294,1.0,-999.0,94,-99.99,,,0.01,weatherlink.com 1.10,2013-09-27 02:57:00,
2013-09-26 23:00:00,55.9,54.5,30.06,WNW,292,1.0,3.0,95,0.00,,CLR,0.01,VWS V14.01,2013-09-27 03:00:00,
2013-09-26 23:12:00,55.8,54.0,30.06,NW,304,0.0,-999.0,95,-99.99,,,0.01,weatherlink.com 1.10,2013-09-27 03:12:00,
2013-09-26 23:27:00,55.5,54.0,30.07,NW,304,0.0,-999.0,95,-99.99,,,0.01,weatherlink.com 1.10,2013-09-27 03:27:00,
2013-09-26 23:30:00,55.5,54.1,30.06,NW,315,0.0,2.0,95,0.00,,CLR,0.01,VWS V14.01,2013-09-27 03:30:00,
2013-09-26 23:42:00,55.3,54.0,30.06,NW,313,0.0,-999.0,95,-99.99,,,0.01,weatherlink.com 1.10,2013-09-27 03:42:00,
2013-09-26 23:57:00,55.0,54.0,30.07,NW,313,0.0,-999.0,95,-99.99,,,0.01,weatherlink.com 1.10,2013-09-27 03:57:00,